Time,TemperatureF,DewpointF,PressureIn,WindDirection,WindDirectionDegrees,WindSpeedMPH,WindSpeedGustMPH,Humidity,HourlyPrecipIn,Conditions,Clouds,dailyrainin,SolarRadiationWatts/m^2,SoftwareType,DateUTC
2013-10-30 00:03:00,27.0,23.0,-100.00,SSW,193,3.0,6.0,83,0.00,,,0.00,0.000000,,2013-10-30 05:03:00,
2013-10-30 00:13:00,27.0,23.0,-100.00,SW,222,2.0,5.0,86,0.00,,,0.00,0.000000,,2013-10-30 05:13:00,
2013-10-30 00:43:00,27.0,23.0,-100.00,SW,222,2.0,5.0,86,0.00,,,0.00,0.000000,,2013-10-30 05:43:00,
2013-10-30 00:53:00,27.0,23.0,-100.00,SW,222,2.0,5.0,86,0.00,,,0.00,0.000000,,2013-10-30 05:53:00,
2013-10-30 01:02:00,27.0,23.0,-100.00,SW,222,2.0,5.0,86,0.00,,,0.00,0.000000,,2013-10-30 06:02:00,
2013-10-30 01:42:00,27.0,24.0,-100.00,SSW,205,2.0,4.0,87,0.00,,,0.00,0.000000,,2013-10-30 06:42:00,
2013-10-30 01:53:00,27.0,24.0,-100.00,SSW,205,2.0,4.0,87,0.00,,,0.00,0.000000,,2013-10-30 06:53:00,
2013-10-30 02:02:00,27.0,24.0,-100.00,SSW,205,2.0,4.0,87,0.00,,,0.00,0.000000,,2013-10-30 07:02:00,
2013-10-30 02:11:00,27.0,24.0,-100.00,SSW,205,2.0,4.0,87,0.00,,,0.00,0.000000,,2013-10-30 07:11:00,
2013-10-30 02:42:00,28.0,24.0,-100.00,SW,224,2.0,4.0,85,0.00,,,0.00,0.000000,,2013-10-30 07:42:00,
2013-10-30 02:52:00,28.0,24.0,-100.00,SW,224,2.0,4.0,85,0.00,,,0.00,0.000000,,2013-10-30 07:52:00,
2013-10-30 03:02:00,28.0,24.0,-100.00,SW,224,2.0,4.0,85,0.00,,,0.00,0.000000,,2013-10-30 08:02:00,
2013-10-30 03:11:00,28.0,24.0,-100.00,SW,224,2.0,4.0,85,0.00,,,0.00,0.000000,,2013-10-30 08:11:00,
2013-10-30 03:42:00,29.0,25.0,-100.00,South,191,3.0,5.0,85,0.00,,,0.00,0.000000,,2013-10-30 08:42:00,
2013-10-30 03:52:00,29.0,25.0,-100.00,South,191,3.0,5.0,85,0.00,,,0.00,0.000000,,2013-10-30 08:52:00,
2013-10-30 04:02:00,29.0,25.0,-100.00,South,191,3.0,5.0,85,0.00,,,0.00,0.000000,,2013-10-30 09:02:00,
2013-10-30 04:11:00,29.0,25.0,-100.00,South,191,3.0,5.0,85,0.00,,,0.00,0.000000,,2013-10-30 09:11:00,
2013-10-30 04:13:00,29.0,25.0,-100.00,SSW,202,2.0,5.0,85,0.00,,,0.00,0.000000,,2013-10-30 09:13:00,
2013-10-30 04:43:00,29.0,25.0,-100.00,SSW,202,2.0,5.0,85,0.00,,,0.00,0.000000,,2013-10-30 09:43:00,
2013-10-30 04:54:00,29.0,25.0,-100.00,SSW,202,2.0,5.0,85,0.00,,,0.00,0.000000,,2013-10-30 09:54:00,
2013-10-30 05:03:00,29.0,25.0,-100.00,SSW,202,2.0,5.0,85,0.00,,,0.00,0.000000,,2013-10-30 10:03:00,
2013-10-30 05:43:00,30.0,26.0,-100.00,South,180,3.0,5.0,86,0.00,,,0.00,0.000000,,2013-10-30 10:43:00,
2013-10-30 05:53:00,30.0,26.0,-100.00,South,180,3.0,5.0,86,0.00,,,0.00,0.000000,,2013-10-30 10:53:00,
2013-10-30 06:02:00,30.0,26.0,-100.00,South,180,3.0,5.0,86,0.00,,,0.00,0.000000,,2013-10-30 11:02:00,
2013-10-30 06:12:00,30.0,26.0,-100.00,South,180,3.0,5.0,86,0.00,,,0.00,0.000000,,2013-10-30 11:12:00,
2013-10-30 06:42:00,30.0,27.0,-100.00,SSE,157,3.0,5.0,87,0.00,,,0.00,0.000000,,2013-10-30 11:42:00,
2013-10-30 06:52:00,30.0,27.0,-100.00,SSE,157,3.0,5.0,87,0.00,,,0.00,0.000000,,2013-10-30 11:52:00,
2013-10-30 07:01:00,30.0,27.0,-100.00,SSE,157,3.0,5.0,87,0.00,,,0.00,0.000000,,2013-10-30 12:01:00,
2013-10-30 07:12:00,30.0,27.0,-100.00,SSE,157,3.0,5.0,87,0.00,,,0.00,0.000000,,2013-10-30 12:12:00,
2013-10-30 07:42:00,30.0,27.0,-100.00,SE,137,0.0,5.0,90,0.00,,,0.00,0.000000,,2013-10-30 12:42:00,
2013-10-30 07:52:00,30.0,27.0,-100.00,SE,137,0.0,5.0,90,0.00,,,0.00,0.000000,,2013-10-30 12:52:00,
2013-10-30 08:02:00,30.0,27.0,-100.00,SE,137,0.0,5.0,90,0.00,,,0.00,0.000000,,2013-10-30 13:02:00,
2013-10-30 08:11:00,30.0,27.0,-100.00,SE,137,0.0,5.0,90,0.00,,,0.00,0.000000,,2013-10-30 13:11:00,
2013-10-30 08:42:00,30.0,27.0,-100.00,SE,128,4.0,5.0,88,0.00,,,0.00,3.000000,,2013-10-30 13:42:00,
2013-10-30 08:52:00,30.0,27.0,-100.00,SE,128,4.0,5.0,88,0.00,,,0.00,3.000000,,2013-10-30 13:52:00,
2013-10-30 09:02:00,30.0,27.0,-100.00,SE,128,4.0,5.0,88,0.00,,,0.00,3.000000,,2013-10-30 14:02:00,
2013-10-30 09:11:00,30.0,27.0,-100.00,SE,128,4.0,5.0,88,0.00,,,0.00,3.000000,,2013-10-30 14:11:00,
2013-10-30 09:42:00,31.0,28.0,-100.00,SE,138,4.0,6.0,88,0.00,,,0.00,25.000000,,2013-10-30 14:42:00,
2013-10-30 09:52:00,31.0,28.0,-100.00,SE,138,4.0,6.0,88,0.00,,,0.00,25.000000,,2013-10-30 14:52:00,
2013-10-30 10:02:00,31.0,28.0,-100.00,SE,138,4.0,6.0,88,0.00,,,0.00,25.000000,,2013-10-30 15:02:00,
2013-10-30 10:11:00,31.0,28.0,-100.00,SE,138,4.0,6.0,88,0.00,,,0.00,25.000000,,2013-10-30 15:11:00,
2013-10-30 10:43:00,33.0,29.0,-100.00,SE,129,4.0,7.0,85,0.00,,,0.00,75.000000,,2013-10-30 15:43:00,
2013-10-30 10:54:00,33.0,29.0,-100.00,SE,129,4.0,7.0,85,0.00,,,0.00,75.000000,,2013-10-30 15:54:00,
2013-10-30 11:03:00,33.0,29.0,-100.00,SE,129,4.0,7.0,85,0.00,,,0.00,75.000000,,2013-10-30 16:03:00,
2013-10-30 11:12:00,33.0,29.0,-100.00,SE,129,4.0,7.0,85,0.00,,,0.00,75.000000,,2013-10-30 16:12:00,
2013-10-30 11:43:00,36.0,31.0,-100.00,SE,141,5.0,8.0,83,0.00,,,0.00,121.000000,,2013-10-30 16:43:00,
2013-10-30 11:53:00,36.0,31.0,-100.00,SE,141,5.0,8.0,83,0.00,,,0.00,121.000000,,2013-10-30 16:53:00,
2013-10-30 12:02:00,36.0,31.0,-100.00,SE,141,5.0,8.0,83,0.00,,,0.00,121.000000,,2013-10-30 17:02:00,
2013-10-30 12:12:00,36.0,31.0,-100.00,SE,141,5.0,8.0,83,0.00,,,0.00,121.000000,,2013-10-30 17:12:00,
2013-10-30 12:42:00,37.0,33.0,-100.00,SSE,158,10.0,17.0,86,0.00,,,0.00,148.000000,,2013-10-30 17:42:00,
2013-10-30 12:52:00,37.0,33.0,-100.00,SSE,158,10.0,17.0,86,0.00,,,0.00,148.000000,,2013-10-30 17:52:00,
2013-10-30 13:02:00,37.0,33.0,-100.00,SSE,158,10.0,17.0,86,0.00,,,0.00,148.000000,,2013-10-30 18:02:00,
2013-10-30 13:12:00,37.0,33.0,-100.00,SSE,158,10.0,17.0,86,0.00,,,0.00,148.000000,,2013-10-30 18:12:00,
2013-10-30 13:42:00,38.0,35.0,-100.00,SE,142,6.0,15.0,88,0.00,,,0.00,145.000000,,2013-10-30 18:42:00,
2013-10-30 13:52:00,38.0,35.0,-100.00,SE,142,6.0,15.0,88,0.00,,,0.00,145.000000,,2013-10-30 18:52:00,
2013-10-30 14:01:00,38.0,35.0,-100.00,SE,142,6.0,15.0,88,0.00,,,0.00,145.000000,,2013-10-30 19:01:00,
2013-10-30 14:11:00,38.0,35.0,-100.00,SE,142,6.0,15.0,88,0.00,,,0.00,145.000000,,2013-10-30 19:11:00,
2013-10-30 14:42:00,39.0,35.0,-100.00,SSE,154,6.0,14.0,86,0.00,,,0.00,121.000000,,2013-10-30 19:42:00,
2013-10-30 14:52:00,39.0,35.0,-100.00,SSE,154,6.0,14.0,86,0.00,,,0.00,121.000000,,2013-10-30 19:52:00,
2013-10-30 15:02:00,39.0,35.0,-100.00,SSE,154,6.0,14.0,86,0.00,,,0.00,121.000000,,2013-10-30 20:02:00,
2013-10-30 15:12:00,39.0,35.0,-100.00,SSE,154,6.0,14.0,86,0.00,,,0.00,121.000000,,2013-10-30 20:12:00,
2013-10-30 15:42:00,39.0,35.0,-100.00,SE,140,4.0,11.0,87,0.00,,,0.00,87.000000,,2013-10-30 20:42:00,
2013-10-30 15:52:00,39.0,35.0,-100.00,SE,140,4.0,11.0,87,0.00,,,0.00,87.000000,,2013-10-30 20:52:00,
2013-10-30 16:01:00,39.0,35.0,-100.00,SE,140,4.0,11.0,87,0.00,,,0.00,87.000000,,2013-10-30 21:01:00,
2013-10-30 16:12:00,39.0,35.0,-100.00,SE,140,4.0,11.0,87,0.00,,,0.00,87.000000,,2013-10-30 21:12:00,
2013-10-30 16:13:00,39.0,36.0,-100.00,SE,130,5.0,8.0,89,0.00,,,0.00,41.000000,,2013-10-30 21:13:00,
2013-10-30 16:43:00,39.0,36.0,-100.00,SE,130,5.0,8.0,89,0.00,,,0.00,41.000000,,2013-10-30 21:43:00,
2013-10-30 16:53:00,39.0,36.0,-100.00,SE,130,5.0,8.0,89,0.00,,,0.00,41.000000,,2013-10-30 21:53:00,
2013-10-30 17:04:00,39.0,36.0,-100.00,SE,130,5.0,8.0,89,0.00,,,0.00,41.000000,,2013-10-30 22:04:00,
2013-10-30 17:43:00,37.0,36.0,-100.00,SE,131,3.0,10.0,96,0.01,,,0.01,12.000000,,2013-10-30 22:43:00,
2013-10-30 17:54:00,37.0,36.0,-100.00,SE,131,3.0,10.0,96,0.01,,,0.01,12.000000,,2013-10-30 22:54:00,
2013-10-30 18:03:00,37.0,36.0,-100.00,SE,131,3.0,10.0,96,0.01,,,0.01,12.000000,,2013-10-30 23:03:00,
2013-10-30 18:12:00,37.0,36.0,-100.00,SE,131,3.0,10.0,96,0.01,,,0.01,12.000000,,2013-10-30 23:12:00,
2013-10-30 18:42:00,37.0,36.0,-100.00,SE,142,5.0,8.0,98,0.01,,,0.02,2.000000,,2013-10-30 23:42:00,
2013-10-30 18:53:00,37.0,36.0,-100.00,SE,142,5.0,8.0,98,0.01,,,0.02,2.000000,,2013-10-30 23:53:00,
2013-10-30 19:02:00,37.0,36.0,-100.00,SE,142,5.0,8.0,98,0.01,,,0.02,2.000000,,2013-10-31 00:02:00,
2013-10-30 19:11:00,37.0,36.0,-100.00,SE,142,5.0,8.0,98,0.01,,,0.02,2.000000,,2013-10-31 00:11:00,
2013-10-30 19:42:00,37.0,36.0,-100.00,SE,132,5.0,9.0,98,0.00,,,0.02,0.000000,,2013-10-31 00:42:00,
2013-10-30 19:52:00,37.0,36.0,-100.00,SE,132,5.0,9.0,98,0.00,,,0.02,0.000000,,2013-10-31 00:52:00,
2013-10-30 20:02:00,37.0,36.0,-100.00,SE,132,5.0,9.0,98,0.00,,,0.02,0.000000,,2013-10-31 01:02:00,
2013-10-30 20:12:00,37.0,36.0,-100.00,SE,132,5.0,9.0,98,0.00,,,0.02,0.000000,,2013-10-31 01:12:00,
2013-10-30 20:42:00,37.0,36.0,-100.00,SE,128,4.0,8.0,98,0.00,,,0.02,0.000000,,2013-10-31 01:42:00,
2013-10-30 20:53:00,37.0,36.0,-100.00,SE,128,4.0,8.0,98,0.00,,,0.02,0.000000,,2013-10-31 01:53:00,
2013-10-30 21:02:00,37.0,36.0,-100.00,SE,128,4.0,8.0,98,0.00,,,0.02,0.000000,,2013-10-31 02:02:00,
2013-10-30 21:12:00,37.0,36.0,-100.00,SE,128,4.0,8.0,98,0.00,,,0.02,0.000000,,2013-10-31 02:12:00,
2013-10-30 21:52:00,37.0,37.0,-100.00,SSE,157,4.0,7.0,99,0.01,,,0.03,0.000000,,2013-10-31 02:52:00,
2013-10-30 22:02:00,37.0,37.0,-100.00,SSE,157,4.0,7.0,99,0.01,,,0.03,0.000000,,2013-10-31 03:02:00,
2013-10-30 22:11:00,37.0,37.0,-100.00,SSE,157,4.0,7.0,99,0.01,,,0.03,0.000000,,2013-10-31 03:11:00,
2013-10-30 22:13:00,37.0,37.0,-100.00,SSE,150,6.0,8.0,99,0.00,,,0.03,0.000000,,2013-10-31 03:13:00,
2013-10-30 22:44:00,37.0,37.0,-100.00,SSE,150,6.0,8.0,99,0.00,,,0.03,0.000000,,2013-10-31 03:44:00,
2013-10-30 22:55:00,37.0,37.0,-100.00,SSE,150,6.0,8.0,99,0.00,,,0.03,0.000000,,2013-10-31 03:55:00,
2013-10-30 23:04:00,37.0,37.0,-100.00,SSE,150,6.0,8.0,99,0.00,,,0.03,0.000000,,2013-10-31 04:04:00,
2013-10-30 23:13:00,38.0,38.0,-100.00,SSE,168,4.0,8.0,99,0.00,,,0.03,0.000000,,2013-10-31 04:13:00,
2013-10-30 23:43:00,38.0,38.0,-100.00,SSE,168,4.0,8.0,99,0.00,,,0.03,0.000000,,2013-10-31 04:43:00,
2013-10-30 23:54:00,38.0,38.0,-100.00,SSE,168,4.0,8.0,99,0.00,,,0.03,0.000000,,2013-10-31 04:54:00,